Year,Month,Day,Hour,Minute,Value (Times are PST for windspeed in km/hr)
2012,01,26,00,00,2.80
2012,01,26,00,01,2.90
2012,01,26,00,02,2.80
2012,01,26,00,03,3.10
2012,01,26,00,04,4.40
2012,01,26,00,05,4.10
2012,01,26,00,06,2.70
2012,01,26,00,07,2.40
2012,01,26,00,08,1.40
2012,01,26,00,09,0.60
2012,01,26,00,10,2.00
2012,01,26,00,11,2.00
2012,01,26,00,12,2.50
2012,01,26,00,13,3.50
2012,01,26,00,14,4.20
2012,01,26,00,15,3.70
2012,01,26,00,16,2.10
2012,01,26,00,17,1.50
2012,01,26,00,18,0.70
2012,01,26,00,19,0.00
2012,01,26,00,20,0.70
2012,01,26,00,21,2.60
2012,01,26,00,22,1.70
2012,01,26,00,23,1.90
2012,01,26,00,24,1.30
2012,01,26,00,25,0.20
2012,01,26,00,26,0.10
2012,01,26,00,27,1.80
2012,01,26,00,28,1.40
2012,01,26,00,29,1.00
2012,01,26,00,30,1.70
2012,01,26,00,31,1.30
2012,01,26,00,32,0.10
2012,01,26,00,33,0.00
2012,01,26,00,34,0.00
2012,01,26,00,35,0.00
2012,01,26,00,36,0.00
2012,01,26,00,37,1.80
2012,01,26,00,38,0.00
2012,01,26,00,39,2.10
2012,01,26,00,40,2.50
2012,01,26,00,41,3.40
2012,01,26,00,42,2.90
2012,01,26,00,43,2.30
2012,01,26,00,44,0.60
2012,01,26,00,45,1.20
2012,01,26,00,46,0.30
2012,01,26,00,47,1.10
2012,01,26,00,48,1.10
2012,01,26,00,49,1.10
2012,01,26,00,50,0.60
2012,01,26,00,51,0.80
2012,01,26,00,52,3.00
2012,01,26,00,53,1.90
2012,01,26,00,54,1.20
2012,01,26,00,55,2.30
2012,01,26,00,56,3.40
2012,01,26,00,57,1.40
2012,01,26,00,58,2.70
2012,01,26,00,59,1.50
2012,01,26,01,00,5.60
2012,01,26,01,01,3.10
2012,01,26,01,02,1.40
2012,01,26,01,03,0.70
2012,01,26,01,04,1.00
2012,01,26,01,05,0.20
2012,01,26,01,06,0.40
2012,01,26,01,07,0.20
2012,01,26,01,08,0.40
2012,01,26,01,09,0.70
2012,01,26,01,10,2.50
2012,01,26,01,11,2.40
2012,01,26,01,12,0.30
2012,01,26,01,13,2.20
2012,01,26,01,14,0.50
2012,01,26,01,15,0.40
2012,01,26,01,16,0.00
2012,01,26,01,17,0.20
2012,01,26,01,18,0.00
2012,01,26,01,19,0.00
2012,01,26,01,20,0.10
2012,01,26,01,21,0.40
2012,01,26,01,22,0.00
2012,01,26,01,23,0.00
2012,01,26,01,24,0.00
2012,01,26,01,25,0.00
2012,01,26,01,26,0.10
2012,01,26,01,27,1.30
2012,01,26,01,28,0.00
2012,01,26,01,29,0.00
2012,01,26,01,30,0.00
2012,01,26,01,31,0.10
2012,01,26,01,32,1.20
2012,01,26,01,33,1.70
2012,01,26,01,34,0.30
2012,01,26,01,35,0.00
2012,01,26,01,36,0.00
2012,01,26,01,37,0.00
2012,01,26,01,38,0.00
2012,01,26,01,39,0.00
2012,01,26,01,40,0.00
2012,01,26,01,41,0.00
2012,01,26,01,42,0.00
2012,01,26,01,43,0.00
2012,01,26,01,44,0.00
2012,01,26,01,45,4.90
2012,01,26,01,46,9.90
2012,01,26,01,47,2.20
2012,01,26,01,48,3.60
2012,01,26,01,49,14.90
2012,01,26,01,50,8.80
2012,01,26,01,51,5.40
2012,01,26,01,52,9.00
2012,01,26,01,53,14.30
2012,01,26,01,54,9.40
2012,01,26,01,55,5.70
2012,01,26,01,56,11.10
2012,01,26,01,57,12.80
2012,01,26,01,58,16.60
2012,01,26,01,59,10.90
2012,01,26,02,00,9.20
2012,01,26,02,01,8.30
2012,01,26,02,02,10.10
2012,01,26,02,03,10.50
2012,01,26,02,04,16.00
2012,01,26,02,05,16.40
2012,01,26,02,06,13.30
2012,01,26,02,07,11.60
2012,01,26,02,08,12.00
2012,01,26,02,09,10.50
2012,01,26,02,10,10.20
2012,01,26,02,11,8.30
2012,01,26,02,12,14.30
2012,01,26,02,13,13.50
2012,01,26,02,14,14.80
2012,01,26,02,15,16.60
2012,01,26,02,16,23.90
2012,01,26,02,17,18.10
2012,01,26,02,18,9.20
2012,01,26,02,19,12.50
2012,01,26,02,20,20.20
2012,01,26,02,21,14.70
2012,01,26,02,22,14.90
2012,01,26,02,23,35.50
2012,01,26,02,24,37.80
2012,01,26,02,25,31.30
2012,01,26,02,26,33.90
2012,01,26,02,27,15.10
2012,01,26,02,28,21.30
2012,01,26,02,29,20.40
2012,01,26,02,30,26.00
2012,01,26,02,31,31.80
2012,01,26,02,32,19.70
2012,01,26,02,33,15.30
2012,01,26,02,34,31.40
2012,01,26,02,35,17.10
2012,01,26,02,36,11.90
2012,01,26,02,37,31.80
2012,01,26,02,38,24.80
2012,01,26,02,39,23.60
2012,01,26,02,40,30.90
2012,01,26,02,41,26.20
2012,01,26,02,42,18.60
2012,01,26,02,43,21.80
2012,01,26,02,44,15.30
2012,01,26,02,45,12.90
2012,01,26,02,46,19.90
2012,01,26,02,47,18.60
2012,01,26,02,48,13.60
2012,01,26,02,49,16.50
2012,01,26,02,50,10.90
2012,01,26,02,51,14.90
2012,01,26,02,52,7.30
2012,01,26,02,53,6.70
2012,01,26,02,54,10.80
2012,01,26,02,55,11.60
2012,01,26,02,56,9.20
2012,01,26,02,57,4.30
2012,01,26,02,58,6.70
2012,01,26,02,59,8.10
2012,01,26,03,00,11.00
2012,01,26,03,01,9.00
2012,01,26,03,02,12.10
2012,01,26,03,03,5.30
2012,01,26,03,04,4.80
2012,01,26,03,05,3.80
2012,01,26,03,06,4.30
2012,01,26,03,07,6.10
2012,01,26,03,08,9.30
2012,01,26,03,09,15.00
2012,01,26,03,10,9.80
2012,01,26,03,11,6.70
2012,01,26,03,12,6.20
2012,01,26,03,13,3.60
2012,01,26,03,14,1.20
2012,01,26,03,15,2.00
2012,01,26,03,16,2.10
2012,01,26,03,17,1.30
2012,01,26,03,18,0.80
2012,01,26,03,19,2.20
2012,01,26,03,20,8.20
2012,01,26,03,21,3.90
2012,01,26,03,22,1.30
2012,01,26,03,23,4.50
2012,01,26,03,24,2.80
2012,01,26,03,25,5.00
2012,01,26,03,26,9.00
2012,01,26,03,27,6.30
2012,01,26,03,28,2.40
2012,01,26,03,29,0.00
2012,01,26,03,30,0.00
2012,01,26,03,31,2.00
2012,01,26,03,32,1.50
2012,01,26,03,33,4.50
2012,01,26,03,34,0.80
2012,01,26,03,35,0.60
2012,01,26,03,36,0.80
2012,01,26,03,37,2.90
2012,01,26,03,38,3.60
2012,01,26,03,39,2.20
2012,01,26,03,40,3.70
2012,01,26,03,41,2.90
2012,01,26,03,42,4.70
2012,01,26,03,43,3.30
2012,01,26,03,44,4.40
2012,01,26,03,45,2.50
2012,01,26,03,46,3.10
2012,01,26,03,47,4.50
2012,01,26,03,48,0.80
2012,01,26,03,49,1.10
2012,01,26,03,50,0.00
2012,01,26,03,51,0.00
2012,01,26,03,52,0.10
2012,01,26,03,53,0.60
2012,01,26,03,54,0.10
2012,01,26,03,55,0.00
2012,01,26,03,56,0.00
2012,01,26,03,57,0.70
2012,01,26,03,58,0.60
2012,01,26,03,59,0.00
2012,01,26,04,00,0.00
2012,01,26,04,01,0.00
2012,01,26,04,02,0.10
2012,01,26,04,03,1.30
2012,01,26,04,04,0.20
2012,01,26,04,05,0.10
2012,01,26,04,06,0.10
2012,01,26,04,07,0.00
2012,01,26,04,08,0.00
2012,01,26,04,09,0.00
2012,01,26,04,10,0.50
2012,01,26,04,11,0.20
2012,01,26,04,12,0.10
2012,01,26,04,13,0.00
2012,01,26,04,14,0.70
2012,01,26,04,15,0.10
2012,01,26,04,16,0.00
2012,01,26,04,17,0.10
2012,01,26,04,18,1.50
2012,01,26,04,19,0.00
2012,01,26,04,20,0.00
2012,01,26,04,21,0.10
2012,01,26,04,22,0.10
2012,01,26,04,23,0.40
2012,01,26,04,24,2.10
2012,01,26,04,25,1.20
2012,01,26,04,26,0.50
2012,01,26,04,27,0.00
2012,01,26,04,28,0.00
2012,01,26,04,29,3.40
2012,01,26,04,30,1.10
2012,01,26,04,31,0.00
2012,01,26,04,32,0.00
2012,01,26,04,33,0.20
2012,01,26,04,34,0.70
2012,01,26,04,35,0.00
2012,01,26,04,36,0.00
2012,01,26,04,37,0.00
2012,01,26,04,38,0.00
2012,01,26,04,39,0.00
2012,01,26,04,40,0.00
2012,01,26,04,41,0.00
2012,01,26,04,42,0.10
2012,01,26,04,43,0.00
2012,01,26,04,44,0.30
2012,01,26,04,45,0.50
2012,01,26,04,46,0.00
2012,01,26,04,47,0.00
2012,01,26,04,48,0.00
2012,01,26,04,49,0.10
2012,01,26,04,50,2.30
2012,01,26,04,51,0.30
2012,01,26,04,52,0.00
2012,01,26,04,53,0.00
2012,01,26,04,54,0.00
2012,01,26,04,55,0.10
2012,01,26,04,56,0.00
2012,01,26,04,57,0.10
2012,01,26,04,58,0.00
2012,01,26,04,59,0.00
2012,01,26,05,00,0.00
2012,01,26,05,01,0.00
2012,01,26,05,02,1.30
2012,01,26,05,03,0.30
2012,01,26,05,04,0.20
2012,01,26,05,05,2.90
2012,01,26,05,06,0.40
2012,01,26,05,07,0.40
2012,01,26,05,08,0.50
2012,01,26,05,09,0.00
2012,01,26,05,10,1.90
2012,01,26,05,11,4.30
2012,01,26,05,12,1.80
2012,01,26,05,13,2.00
2012,01,26,05,14,2.20
2012,01,26,05,15,2.50
2012,01,26,05,16,3.00
2012,01,26,05,17,5.30
2012,01,26,05,18,3.80
2012,01,26,05,19,3.10
2012,01,26,05,20,4.40
2012,01,26,05,21,3.20
2012,01,26,05,22,2.40
2012,01,26,05,23,1.80
2012,01,26,05,24,1.70
2012,01,26,05,25,2.70
2012,01,26,05,26,3.90
2012,01,26,05,27,4.70
2012,01,26,05,28,6.40
2012,01,26,05,29,6.50
2012,01,26,05,30,6.40
2012,01,26,05,31,6.80
2012,01,26,05,32,6.60
2012,01,26,05,33,8.70
2012,01,26,05,34,7.50
2012,01,26,05,35,7.00
2012,01,26,05,36,8.40
2012,01,26,05,37,6.70
2012,01,26,05,38,7.10
2012,01,26,05,39,6.20
2012,01,26,05,40,7.40
2012,01,26,05,41,5.50
2012,01,26,05,42,8.10
2012,01,26,05,43,5.50
2012,01,26,05,44,4.50
2012,01,26,05,45,5.60
2012,01,26,05,46,4.70
2012,01,26,05,47,6.10
2012,01,26,05,48,7.70
2012,01,26,05,49,6.10
2012,01,26,05,50,7.30
2012,01,26,05,51,6.50
2012,01,26,05,52,8.80
2012,01,26,05,53,5.00
2012,01,26,05,54,6.00
2012,01,26,05,55,5.90
2012,01,26,05,56,8.80
2012,01,26,05,57,4.10
2012,01,26,05,58,4.30
2012,01,26,05,59,3.30
2012,01,26,06,00,6.60
2012,01,26,06,01,4.80
2012,01,26,06,02,4.50
2012,01,26,06,03,6.40
2012,01,26,06,04,5.50
2012,01,26,06,05,5.80
2012,01,26,06,06,7.60
2012,01,26,06,07,6.40
2012,01,26,06,08,8.60
2012,01,26,06,09,7.70
2012,01,26,06,10,8.80
2012,01,26,06,11,6.60
2012,01,26,06,12,7.60
2012,01,26,06,13,10.20
2012,01,26,06,14,12.80
2012,01,26,06,15,10.20
2012,01,26,06,16,6.10
2012,01,26,06,17,10.50
2012,01,26,06,18,9.40
2012,01,26,06,19,6.90
2012,01,26,06,20,8.50
2012,01,26,06,21,6.70
2012,01,26,06,22,6.40
2012,01,26,06,23,5.60
2012,01,26,06,24,9.40
2012,01,26,06,25,10.30
2012,01,26,06,26,8.00
2012,01,26,06,27,9.00
2012,01,26,06,28,5.40
2012,01,26,06,29,9.30
2012,01,26,06,30,6.90
2012,01,26,06,31,8.80
2012,01,26,06,32,7.50
2012,01,26,06,33,6.00
2012,01,26,06,34,6.90
2012,01,26,06,35,4.50
2012,01,26,06,36,5.20
2012,01,26,06,37,7.50
2012,01,26,06,38,4.00
2012,01,26,06,39,4.80
2012,01,26,06,40,8.00
2012,01,26,06,41,6.10
2012,01,26,06,42,4.80
2012,01,26,06,43,2.40
2012,01,26,06,44,6.90
2012,01,26,06,45,2.80
2012,01,26,06,46,4.80
2012,01,26,06,47,0.60
2012,01,26,06,48,1.30
2012,01,26,06,49,0.10
2012,01,26,06,50,0.90
2012,01,26,06,51,0.80
2012,01,26,06,52,0.00
2012,01,26,06,53,0.00
2012,01,26,06,54,0.00
2012,01,26,06,55,0.10
2012,01,26,06,56,0.60
2012,01,26,06,57,1.60
2012,01,26,06,58,0.60
2012,01,26,06,59,0.10
2012,01,26,07,00,0.00
2012,01,26,07,01,0.00
2012,01,26,07,02,0.00
2012,01,26,07,03,0.10
2012,01,26,07,04,0.00
2012,01,26,07,05,0.00
2012,01,26,07,06,0.70
2012,01,26,07,07,0.50
2012,01,26,07,08,0.00
2012,01,26,07,09,0.00
2012,01,26,07,10,0.00
2012,01,26,07,11,0.00
2012,01,26,07,12,0.00
2012,01,26,07,13,0.00
2012,01,26,07,14,0.00
2012,01,26,07,15,0.40
2012,01,26,07,16,0.00
2012,01,26,07,17,0.00
2012,01,26,07,18,0.00
2012,01,26,07,19,0.00
2012,01,26,07,20,0.00
2012,01,26,07,21,0.00
2012,01,26,07,22,0.00
2012,01,26,07,23,0.00
2012,01,26,07,24,0.00
2012,01,26,07,25,0.00
2012,01,26,07,26,0.00
2012,01,26,07,27,0.00
2012,01,26,07,28,0.00
2012,01,26,07,29,0.80
2012,01,26,07,30,0.90
2012,01,26,07,31,0.00
2012,01,26,07,32,0.00
2012,01,26,07,33,0.00
2012,01,26,07,34,0.10
2012,01,26,07,35,0.00
2012,01,26,07,36,2.30
2012,01,26,07,37,0.30
2012,01,26,07,38,0.00
2012,01,26,07,39,0.00
2012,01,26,07,40,0.00
2012,01,26,07,41,0.00
2012,01,26,07,42,0.00
2012,01,26,07,43,0.00
2012,01,26,07,44,0.00
2012,01,26,07,45,0.00
2012,01,26,07,46,0.60
2012,01,26,07,47,0.40
2012,01,26,07,48,1.80
2012,01,26,07,49,0.10
2012,01,26,07,50,0.20
2012,01,26,07,51,5.40
2012,01,26,07,52,1.40
2012,01,26,07,53,0.80
2012,01,26,07,54,3.60
2012,01,26,07,55,2.60
2012,01,26,07,56,2.10
2012,01,26,07,57,0.10
2012,01,26,07,58,0.00
2012,01,26,07,59,1.00
2012,01,26,08,00,0.20
2012,01,26,08,01,0.10
2012,01,26,08,02,0.00
2012,01,26,08,03,0.00
2012,01,26,08,04,0.00
2012,01,26,08,05,0.00
2012,01,26,08,06,0.00
2012,01,26,08,07,0.00
2012,01,26,08,08,0.00
2012,01,26,08,09,0.00
2012,01,26,08,10,0.00
2012,01,26,08,11,0.00
2012,01,26,08,12,0.00
2012,01,26,08,13,0.00
2012,01,26,08,14,0.00
2012,01,26,08,15,0.00
2012,01,26,08,16,0.00
2012,01,26,08,17,0.00
2012,01,26,08,18,0.00
2012,01,26,08,19,0.00
2012,01,26,08,20,0.10
2012,01,26,08,21,0.40
2012,01,26,08,22,3.40
2012,01,26,08,23,3.40
2012,01,26,08,24,3.10
2012,01,26,08,25,4.70
2012,01,26,08,26,4.30
2012,01,26,08,27,4.60
2012,01,26,08,28,5.80
2012,01,26,08,29,7.30
2012,01,26,08,30,7.30
2012,01,26,08,31,6.00
2012,01,26,08,32,6.10
2012,01,26,08,33,5.90
2012,01,26,08,34,5.50
2012,01,26,08,35,5.90
2012,01,26,08,36,5.30
2012,01,26,08,37,4.50
2012,01,26,08,38,3.70
2012,01,26,08,39,4.70
2012,01,26,08,40,4.30
2012,01,26,08,41,3.70
2012,01,26,08,42,8.00
2012,01,26,08,43,5.30
2012,01,26,08,44,5.70
2012,01,26,08,45,5.20
2012,01,26,08,46,3.20
2012,01,26,08,47,3.30
2012,01,26,08,48,5.80
2012,01,26,08,49,9.30
2012,01,26,08,50,3.80
2012,01,26,08,51,0.70
2012,01,26,08,52,1.40
2012,01,26,08,53,0.10
2012,01,26,08,54,0.00
2012,01,26,08,55,2.30
2012,01,26,08,56,1.70
2012,01,26,08,57,1.00
2012,01,26,08,58,2.40
2012,01,26,08,59,7.40
2012,01,26,09,00,7.70
2012,01,26,09,01,5.90
2012,01,26,09,02,5.40
2012,01,26,09,03,7.30
2012,01,26,09,04,8.60
2012,01,26,09,05,5.40
2012,01,26,09,06,5.80
2012,01,26,09,07,2.40
2012,01,26,09,08,0.40
2012,01,26,09,09,3.40
2012,01,26,09,10,3.80
2012,01,26,09,11,0.90
2012,01,26,09,12,1.20
2012,01,26,09,13,1.30
2012,01,26,09,14,2.50
2012,01,26,09,15,4.50
2012,01,26,09,16,0.90
2012,01,26,09,17,3.80
2012,01,26,09,18,8.60
2012,01,26,09,19,5.60
2012,01,26,09,20,3.10
2012,01,26,09,21,1.50
2012,01,26,09,22,5.40
2012,01,26,09,23,4.70
2012,01,26,09,24,4.60
2012,01,26,09,25,6.20
2012,01,26,09,26,7.10
2012,01,26,09,27,4.50
2012,01,26,09,28,1.70
2012,01,26,09,29,1.10
2012,01,26,09,30,0.60
2012,01,26,09,31,1.10
2012,01,26,09,32,1.20
2012,01,26,09,33,4.10
2012,01,26,09,34,4.90
2012,01,26,09,35,2.80
2012,01,26,09,36,2.60
2012,01,26,09,37,5.80
2012,01,26,09,38,5.60
2012,01,26,09,39,5.20
2012,01,26,09,40,6.70
2012,01,26,09,41,6.50
2012,01,26,09,42,5.60
2012,01,26,09,43,8.00
2012,01,26,09,44,4.50
2012,01,26,09,45,1.50
2012,01,26,09,46,1.50
2012,01,26,09,47,1.20
2012,01,26,09,48,0.60
2012,01,26,09,49,1.50
2012,01,26,09,50,1.00
2012,01,26,09,51,0.10
2012,01,26,09,52,0.10
2012,01,26,09,53,1.90
2012,01,26,09,54,9.20
2012,01,26,09,55,15.00
2012,01,26,09,56,11.50
2012,01,26,09,57,8.40
2012,01,26,09,58,7.40
2012,01,26,09,59,10.60
2012,01,26,10,00,8.20
2012,01,26,10,01,6.60
2012,01,26,10,02,2.20
2012,01,26,10,03,5.40
2012,01,26,10,04,5.70
2012,01,26,10,05,1.70
2012,01,26,10,06,2.30
2012,01,26,10,07,13.20
2012,01,26,10,08,7.40
2012,01,26,10,09,7.80
2012,01,26,10,10,4.90
2012,01,26,10,11,3.30
2012,01,26,10,12,11.00
2012,01,26,10,13,8.00
2012,01,26,10,14,11.00
2012,01,26,10,15,9.70
2012,01,26,10,16,11.10
2012,01,26,10,17,13.40
2012,01,26,10,18,17.20
2012,01,26,10,19,9.90
2012,01,26,10,20,11.10
2012,01,26,10,21,10.20
2012,01,26,10,22,15.50
2012,01,26,10,23,12.30
2012,01,26,10,24,12.90
2012,01,26,10,25,10.00
2012,01,26,10,26,11.00
2012,01,26,10,27,6.80
2012,01,26,10,28,9.40
2012,01,26,10,29,10.30
2012,01,26,10,30,8.70
2012,01,26,10,31,18.30
2012,01,26,10,32,11.20
2012,01,26,10,33,12.90
2012,01,26,10,34,8.50
2012,01,26,10,35,8.20
2012,01,26,10,36,9.90
2012,01,26,10,37,6.90
2012,01,26,10,38,6.60
2012,01,26,10,39,12.10
2012,01,26,10,40,10.70
2012,01,26,10,41,9.90
2012,01,26,10,42,7.60
2012,01,26,10,43,6.40
2012,01,26,10,44,8.90
2012,01,26,10,45,10.90
2012,01,26,10,46,13.20
2012,01,26,10,47,6.20
2012,01,26,10,48,7.30
2012,01,26,10,49,8.10
2012,01,26,10,50,16.40
2012,01,26,10,51,13.90
2012,01,26,10,52,10.50
2012,01,26,10,53,9.50
2012,01,26,10,54,8.50
2012,01,26,10,55,6.60
2012,01,26,10,56,14.30
2012,01,26,10,57,12.70
2012,01,26,10,58,10.10
2012,01,26,10,59,6.90
2012,01,26,11,00,8.30
2012,01,26,11,01,7.60
2012,01,26,11,02,6.90
2012,01,26,11,03,8.60
2012,01,26,11,04,16.10
2012,01,26,11,05,17.60
2012,01,26,11,06,12.90
2012,01,26,11,07,9.20
2012,01,26,11,08,12.20
2012,01,26,11,09,13.40
2012,01,26,11,10,8.80
2012,01,26,11,11,6.60
2012,01,26,11,12,11.10
2012,01,26,11,13,13.20
2012,01,26,11,14,10.10
2012,01,26,11,15,11.50
2012,01,26,11,16,11.30
2012,01,26,11,17,8.00
2012,01,26,11,18,12.90
2012,01,26,11,19,10.90
2012,01,26,11,20,15.60
2012,01,26,11,21,19.30
2012,01,26,11,22,13.80
2012,01,26,11,23,11.30
2012,01,26,11,24,12.00
2012,01,26,11,25,10.90
2012,01,26,11,26,13.70
2012,01,26,11,27,12.00
2012,01,26,11,28,9.60
2012,01,26,11,29,5.90
2012,01,26,11,30,8.40
2012,01,26,11,31,12.60
2012,01,26,11,32,11.90
2012,01,26,11,33,11.40
2012,01,26,11,34,14.80
2012,01,26,11,35,10.30
2012,01,26,11,36,9.20
2012,01,26,11,37,12.70
2012,01,26,11,38,14.40
2012,01,26,11,39,10.80
2012,01,26,11,40,12.50
2012,01,26,11,41,9.40
2012,01,26,11,42,10.40
2012,01,26,11,43,10.40
2012,01,26,11,44,10.40
2012,01,26,11,45,9.10
2012,01,26,11,46,12.50
2012,01,26,11,47,10.70
2012,01,26,11,48,14.30
2012,01,26,11,49,13.00
2012,01,26,11,50,14.90
2012,01,26,11,51,12.10
2012,01,26,11,52,12.10
2012,01,26,11,53,15.50
2012,01,26,11,54,14.40
2012,01,26,11,55,19.30
2012,01,26,11,56,13.00
2012,01,26,11,57,11.50
2012,01,26,11,58,18.20
2012,01,26,11,59,11.40
2012,01,26,12,00,12.10
2012,01,26,12,01,16.40
2012,01,26,12,02,14.10
2012,01,26,12,03,15.90
2012,01,26,12,04,14.10
2012,01,26,12,05,19.10
2012,01,26,12,06,11.50
2012,01,26,12,07,13.30
2012,01,26,12,08,11.50
2012,01,26,12,09,14.20
2012,01,26,12,10,12.10
2012,01,26,12,11,13.00
2012,01,26,12,12,10.50
2012,01,26,12,13,10.10
2012,01,26,12,14,11.10
2012,01,26,12,15,15.00
2012,01,26,12,16,16.50
2012,01,26,12,17,18.10
2012,01,26,12,18,12.90
2012,01,26,12,19,16.70
2012,01,26,12,20,13.30
2012,01,26,12,21,14.20
2012,01,26,12,22,14.00
2012,01,26,12,23,15.20
2012,01,26,12,24,15.90
2012,01,26,12,25,14.10
2012,01,26,12,26,16.60
2012,01,26,12,27,13.20
2012,01,26,12,28,9.70
2012,01,26,12,29,8.20
2012,01,26,12,30,7.00
2012,01,26,12,31,10.30
2012,01,26,12,32,8.00
2012,01,26,12,33,11.40
2012,01,26,12,34,9.20
2012,01,26,12,35,10.60
2012,01,26,12,36,9.50
2012,01,26,12,37,14.90
2012,01,26,12,38,13.20
2012,01,26,12,39,9.80
2012,01,26,12,40,8.00
2012,01,26,12,41,5.30
2012,01,26,12,42,9.10
2012,01,26,12,43,5.60
2012,01,26,12,44,5.00
2012,01,26,12,45,6.30
2012,01,26,12,46,9.00
2012,01,26,12,47,6.50
2012,01,26,12,48,7.60
2012,01,26,12,49,12.80
2012,01,26,12,50,8.70
2012,01,26,12,51,6.10
2012,01,26,12,52,17.40
2012,01,26,12,53,15.20
2012,01,26,12,54,16.40
2012,01,26,12,55,5.90
2012,01,26,12,56,13.20
2012,01,26,12,57,10.90
2012,01,26,12,58,9.40
2012,01,26,12,59,10.80
2012,01,26,13,00,11.90
2012,01,26,13,01,12.90
2012,01,26,13,02,14.30
2012,01,26,13,03,17.10
2012,01,26,13,04,8.80
2012,01,26,13,05,19.20
2012,01,26,13,06,11.60
2012,01,26,13,07,9.80
2012,01,26,13,08,7.00
2012,01,26,13,09,8.70
2012,01,26,13,10,13.00
2012,01,26,13,11,14.60
2012,01,26,13,12,12.80
2012,01,26,13,13,20.30
2012,01,26,13,14,15.50
2012,01,26,13,15,19.30
2012,01,26,13,16,16.70
2012,01,26,13,17,7.00
2012,01,26,13,18,5.20
2012,01,26,13,19,10.80
2012,01,26,13,20,9.90
2012,01,26,13,21,11.30
2012,01,26,13,22,10.60
2012,01,26,13,23,11.40
2012,01,26,13,24,11.30
2012,01,26,13,25,8.70
2012,01,26,13,26,12.80
2012,01,26,13,27,11.30
2012,01,26,13,28,8.50
2012,01,26,13,29,12.00
2012,01,26,13,30,16.90
2012,01,26,13,31,11.90
2012,01,26,13,32,10.10
2012,01,26,13,33,8.10
2012,01,26,13,34,12.70
2012,01,26,13,35,12.90
2012,01,26,13,36,18.20
2012,01,26,13,37,16.20
2012,01,26,13,38,12.60
2012,01,26,13,39,11.40
2012,01,26,13,40,7.30
2012,01,26,13,41,4.00
2012,01,26,13,42,2.60
2012,01,26,13,43,7.20
2012,01,26,13,44,16.90
2012,01,26,13,45,12.00
2012,01,26,13,46,9.20
2012,01,26,13,47,7.50
2012,01,26,13,48,10.50
2012,01,26,13,49,6.30
2012,01,26,13,50,5.70
2012,01,26,13,51,6.50
2012,01,26,13,52,11.90
2012,01,26,13,53,9.40
2012,01,26,13,54,16.40
2012,01,26,13,55,17.10
2012,01,26,13,56,9.50
2012,01,26,13,57,2.70
2012,01,26,13,58,9.00
2012,01,26,13,59,19.10
2012,01,26,14,00,13.60
2012,01,26,14,01,11.70
2012,01,26,14,02,10.50
2012,01,26,14,03,13.90
2012,01,26,14,04,6.20
2012,01,26,14,05,17.30
2012,01,26,14,06,8.60
2012,01,26,14,07,6.90
2012,01,26,14,08,5.30
2012,01,26,14,09,3.20
2012,01,26,14,10,10.20
2012,01,26,14,11,7.90
2012,01,26,14,12,15.90
2012,01,26,14,13,12.80
2012,01,26,14,14,12.90
2012,01,26,14,15,5.90
2012,01,26,14,16,4.40
2012,01,26,14,17,8.90
2012,01,26,14,18,8.90
2012,01,26,14,19,15.30
2012,01,26,14,20,12.00
2012,01,26,14,21,3.40
2012,01,26,14,22,5.40
2012,01,26,14,23,5.60
2012,01,26,14,24,9.90
2012,01,26,14,25,10.10
2012,01,26,14,26,6.50
2012,01,26,14,27,3.40
2012,01,26,14,28,6.80
2012,01,26,14,29,5.20
2012,01,26,14,30,11.40
2012,01,26,14,31,12.00
2012,01,26,14,32,17.00
2012,01,26,14,33,11.40
2012,01,26,14,34,9.20
2012,01,26,14,35,16.20
2012,01,26,14,36,11.50
2012,01,26,14,37,11.00
2012,01,26,14,38,10.80
2012,01,26,14,39,11.50
2012,01,26,14,40,12.90
2012,01,26,14,41,6.40
2012,01,26,14,42,4.60
2012,01,26,14,43,11.70
2012,01,26,14,44,14.00
2012,01,26,14,45,11.80
2012,01,26,14,46,10.70
2012,01,26,14,47,4.50
2012,01,26,14,48,7.80
2012,01,26,14,49,14.10
2012,01,26,14,50,13.50
2012,01,26,14,51,10.70
2012,01,26,14,52,12.20
2012,01,26,14,53,12.30
2012,01,26,14,54,5.00
2012,01,26,14,55,2.60
2012,01,26,14,56,2.10
2012,01,26,14,57,2.30
2012,01,26,14,58,8.60
2012,01,26,14,59,10.30
2012,01,26,15,00,6.90
2012,01,26,15,01,8.10
2012,01,26,15,02,4.50
2012,01,26,15,03,2.60
2012,01,26,15,04,2.10
2012,01,26,15,05,6.80
2012,01,26,15,06,4.30
2012,01,26,15,07,2.90
2012,01,26,15,08,4.90
2012,01,26,15,09,6.80
2012,01,26,15,10,6.00
2012,01,26,15,11,5.60
2012,01,26,15,12,10.10
2012,01,26,15,13,9.10
2012,01,26,15,14,3.90
2012,01,26,15,15,6.20
2012,01,26,15,16,6.40
2012,01,26,15,17,5.00
2012,01,26,15,18,12.00
2012,01,26,15,19,7.40
2012,01,26,15,20,4.40
2012,01,26,15,21,8.90
2012,01,26,15,22,5.10
2012,01,26,15,23,3.50
2012,01,26,15,24,5.80
2012,01,26,15,25,9.00
2012,01,26,15,26,4.40
2012,01,26,15,27,6.20
2012,01,26,15,28,7.50
2012,01,26,15,29,5.30
2012,01,26,15,30,4.60
2012,01,26,15,31,0.80
2012,01,26,15,32,2.10
2012,01,26,15,33,0.70
2012,01,26,15,34,4.70
2012,01,26,15,35,10.60
2012,01,26,15,36,6.80
2012,01,26,15,37,7.30
2012,01,26,15,38,7.80
2012,01,26,15,39,5.70
2012,01,26,15,40,7.40
2012,01,26,15,41,5.20
2012,01,26,15,42,5.30
2012,01,26,15,43,6.60
2012,01,26,15,44,8.30
2012,01,26,15,45,14.30
2012,01,26,15,46,9.90
2012,01,26,15,47,16.70
2012,01,26,15,48,12.20
2012,01,26,15,49,6.20
2012,01,26,15,50,8.70
2012,01,26,15,51,17.40
2012,01,26,15,52,11.20
2012,01,26,15,53,12.40
2012,01,26,15,54,8.20
2012,01,26,15,55,8.20
2012,01,26,15,56,3.90
2012,01,26,15,57,11.70
2012,01,26,15,58,14.30
2012,01,26,15,59,10.30
2012,01,26,16,00,7.20
2012,01,26,16,01,5.40
2012,01,26,16,02,11.50
2012,01,26,16,03,5.10
2012,01,26,16,04,6.70
2012,01,26,16,05,11.30
2012,01,26,16,06,9.10
2012,01,26,16,07,12.60
2012,01,26,16,08,9.80
2012,01,26,16,09,10.20
2012,01,26,16,10,6.80
2012,01,26,16,11,12.60
2012,01,26,16,12,3.40
2012,01,26,16,13,3.60
2012,01,26,16,14,5.10
2012,01,26,16,15,13.60
2012,01,26,16,16,12.30
2012,01,26,16,17,6.60
2012,01,26,16,18,7.30
2012,01,26,16,19,8.40
2012,01,26,16,20,13.20
2012,01,26,16,21,7.60
2012,01,26,16,22,9.40
2012,01,26,16,23,4.80
2012,01,26,16,24,4.80
2012,01,26,16,25,9.90
2012,01,26,16,26,7.90
2012,01,26,16,27,6.10
2012,01,26,16,28,9.60
2012,01,26,16,29,11.60
2012,01,26,16,30,8.10
2012,01,26,16,31,6.50
2012,01,26,16,32,9.40
2012,01,26,16,33,9.70
2012,01,26,16,34,10.90
2012,01,26,16,35,11.00
2012,01,26,16,36,9.90
2012,01,26,16,37,9.20
2012,01,26,16,38,7.90
2012,01,26,16,39,11.50
2012,01,26,16,40,6.70
2012,01,26,16,41,7.60
2012,01,26,16,42,3.30
2012,01,26,16,43,3.90
2012,01,26,16,44,3.00
2012,01,26,16,45,6.00
2012,01,26,16,46,3.70
2012,01,26,16,47,6.70
2012,01,26,16,48,3.50
2012,01,26,16,49,3.20
2012,01,26,16,50,3.50
2012,01,26,16,51,5.40
2012,01,26,16,52,6.10
2012,01,26,16,53,7.10
2012,01,26,16,54,4.20
2012,01,26,16,55,4.10
2012,01,26,16,56,2.90
2012,01,26,16,57,3.10
2012,01,26,16,58,1.50
2012,01,26,16,59,2.30
2012,01,26,17,00,2.70
2012,01,26,17,01,2.40
2012,01,26,17,02,3.90
2012,01,26,17,03,6.30
2012,01,26,17,04,6.80
2012,01,26,17,05,5.00
2012,01,26,17,06,6.40
2012,01,26,17,07,3.90
2012,01,26,17,08,7.50
2012,01,26,17,09,8.60
2012,01,26,17,10,4.40
2012,01,26,17,11,5.00
2012,01,26,17,12,4.80
2012,01,26,17,13,2.70
2012,01,26,17,14,6.70
2012,01,26,17,15,5.60
2012,01,26,17,16,4.90
2012,01,26,17,17,5.40
2012,01,26,17,18,5.60
2012,01,26,17,19,7.10
2012,01,26,17,20,6.20
2012,01,26,17,21,9.00
2012,01,26,17,22,9.40
2012,01,26,17,23,6.90
2012,01,26,17,24,4.50
2012,01,26,17,25,11.00
2012,01,26,17,26,4.40
2012,01,26,17,27,6.40
2012,01,26,17,28,2.20
2012,01,26,17,29,3.80
2012,01,26,17,30,2.30
2012,01,26,17,31,10.80
2012,01,26,17,32,8.50
2012,01,26,17,33,10.20
2012,01,26,17,34,8.00
2012,01,26,17,35,7.00
2012,01,26,17,36,7.60
2012,01,26,17,37,6.50
2012,01,26,17,38,6.80
2012,01,26,17,39,9.00
2012,01,26,17,40,6.60
2012,01,26,17,41,4.30
2012,01,26,17,42,4.60
2012,01,26,17,43,9.10
2012,01,26,17,44,6.60
2012,01,26,17,45,4.50
2012,01,26,17,46,2.90
2012,01,26,17,47,6.40
2012,01,26,17,48,3.80
2012,01,26,17,49,4.40
2012,01,26,17,50,2.70
2012,01,26,17,51,0.90
2012,01,26,17,52,5.20
2012,01,26,17,53,2.00
2012,01,26,17,54,0.80